{"data":{"norad_id":67090,"epoch":"2026-05-25T02:31:24.648096Z","epoch_age_seconds":62353,"freshness":"FRESH","line1":"1 67090U 25298R   26145.10514639  .00001122  00000+0  10180-3 0  9993","line2":"2 67090  70.0015 181.7841 0003473 263.8178  96.2585 14.98339965 24669","mean_motion":14.98339965,"eccentricity":0.0003473,"inclination_deg":70.0015,"raan_deg":181.7841,"arg_perigee_deg":263.8178,"mean_anomaly_deg":96.2585,"bstar":0.0001018,"rev_number":2466,"period_min":96.10635994749,"perigee_km":569.61128388601,"apogee_km":574.43886646343,"semimajor_km":6950.1620751747,"source":"CELESTRAK","updated_at":"2026-05-25T13:38:21.469513Z"}}